Content
SEND FEEDBACK

Daily
Averages
Monthly
Summary
United States of America

BANNING, CALIFORNIA


Home > North America > United States > California
Elevation: 2609 feet     Latitude: 33 56N     Longitude: 116 56W

WEATHER
 
SELECT A DAY
Number of Records: 165,827;   Date Range: 1/1/95 - 9/21/14
 
SHARE

PRINT THIS DATA

[ ← Previous Day ]
WEATHER ALMANAC - JANUARY 31, 2013
[ Next Day → ]
[ °C ]   °F
Weather ElementAverageHighLow
Temperature55.1 °F75 °F (2:52 pm)37 °F (6:52 am)
Dewpoint37.8 °F41 °F (4:52 pm)33.1 °F (6:52 am)
Humidity56.9 %86 % (6:52 am)25 % (2:52 pm)
Barometer30.17 in30.25 in (9:52 am)30.10 in (3:52 pm)
Wind Speed2.9 mph6.9 mph (3:52 pm)
Weather ElementAverage
Visibility10 mi
Wind DirectionSSE (143.9 °)

Weather ElementTotal
Precipitation---
Heating Degree Days9 (Base 65)
Growing Degree Days6 (Base 50)
Averaged from 23 records on January 31, 2013
WEATHER CONDITIONS BREAKOUT
WIND DIRECTION BREAKOUT
WEATHER BY HOUR - JANUARY 31, 2013
[ °C ]   °F
Local TimeTemperatureDewpointHumidityBarometerVisibilityWind DirectionWind SpeedGust SpeedPrecipitationEventsConditions
1:52 AM45.0 °F37.0 °F74 %30.24 in10.0 miNorth (350°)5.8 mphClear
2:52 AM42.1 °F37.0 °F82 %30.23 in10.0 miCalmClear
3:52 AM39.9 °F35.1 °F83 %30.21 in10.0 miCalmClear
4:52 AM42.1 °F36.0 °F79 %30.21 in10.0 miNNE (20°)3.5 mphClear
5:52 AM43.0 °F36.0 °F76 %30.21 in10.0 miNorth (360°)3.5 mphClear
6:52 AM37.0 °F33.1 °F86 %30.21 in10.0 miWest (280°)3.5 mphClear
7:52 AM48.0 °F37.9 °F68 %30.22 in10.0 miNW (310°)5.8 mphClear
8:52 AM55.9 °F39.0 °F53 %30.23 in10.0 miCalmClear
9:52 AM62.1 °F39.0 °F43 %30.25 in10.0 miCalmClear
10:52 AM66.0 °F37.9 °F36 %30.24 in10.0 miVariable3.5 mphClear
11:52 AM69.1 °F36.0 °F30 %30.20 in10.0 miCalmClear
12:52 PM73.0 °F36.0 °F26 %30.15 in10.0 miCalmClear
1:52 PM73.9 °F37.9 °F27 %30.12 in10.0 miESE (110°)5.8 mphClear
2:52 PM75.0 °F37.0 °F25 %30.11 in10.0 miCalmClear
3:52 PM73.0 °F39.9 °F30 %30.10 in10.0 miSSE (150°)6.9 mphClear
4:52 PM66.0 °F41.0 °F40 %30.11 in10.0 miSSE (150°)6.9 mphClear
5:52 PM57.0 °F39.9 °F53 %30.12 in10.0 miSSW (210°)5.8 mphClear
6:52 PM55.0 °F37.9 °F53 %30.12 in10.0 miCalmClear
7:52 PM54.0 °F39.0 °F57 %30.13 in10.0 miCalmClear
8:52 PM48.9 °F39.0 °F69 %30.14 in10.0 miNNW (340°)3.5 mphClear
9:52 PM48.0 °F39.0 °F71 %30.14 in10.0 miNNW (340°)3.5 mphClear
10:52 PM46.9 °F37.9 °F71 %30.14 in10.0 miNNW (330°)4.6 mphClear
11:52 PM46.9 °F39.9 °F77 %30.13 in10.0 miNorth (360°)4.6 mphClear
Hourly data recorded from KTRM, located miles away from Banning, California







STORIES FROM OUR PARTNERS